Theta_e
312 314 314 313 311 312 312 312 309 312 312 317 322 321 321 323 325 329 334 338 340 341 344 345 345 346 345 344 342 340 338 336 336 336 335 333 335 339 340 342 340 341 339 338
310 312 313 310 312 313 313 313 312 313 313 322 324 323 320 321 322 324 328 333 339 342 343 344 345 345 344 342 341 339 336 334 335 336 334 333 335 338 341 340 340 339 337 335
308 312 311 307 311 312 312 314 314 310 316 320 320 319 320 321 322 323 324 328 335 341 345 348 345 345 342 340 341 338 337 335 334 333 332 334 336 337 339 338 338 337 335 335
309 311 302 313 318 317 314 315 318 317 318 321 321 321 322 324 324 324 325 327 331 339 344 346 346 345 342 340 338 336 335 334 333 332 331 336 339 339 339 338 337 335 335 336
307 306 311 313 316 315 313 313 318 317 320 319 320 322 323 328 330 328 331 334 337 340 346 346 344 343 340 338 337 335 334 334 331 330 334 336 336 338 338 335 338 335 336 335
310 305 302 313 319 319 318 309 321 320 319 319 321 315 321 333 332 332 336 338 339 341 343 343 344 341 339 337 337 335 334 333 332 333 336 335 336 337 337 336 337 331 334 333
308 306 310 318 319 320 307 312 323 321 322 322 321 324 331 333 333 336 338 338 341 342 341 342 341 341 338 337 336 336 336 334 332 334 337 337 337 338 337 337 337 335 333 333
308 305 303 321 319 312 323 327 326 324 325 325 326 327 329 331 332 333 336 339 341 341 340 344 343 341 340 337 339 338 337 334 334 334 334 333 337 338 338 338 335 334 334 328
314 312 324 323 325 328 328 327 325 325 324 324 323 325 327 330 332 333 336 339 340 338 338 340 345 343 340 342 341 339 336 335 337 335 334 336 336 337 332 333 334 326 321 321
314 319 319 322 324 324 325 324 322 322 321 320 319 320 322 326 330 334 337 337 338 337 336 341 343 343 343 344 342 339 336 336 337 334 335 336 331 328 328 326 325 322 322 321
314 319 320 319 320 321 322 322 319 320 319 317 317 317 319 320 324 327 333 337 339 338 338 340 346 343 343 342 341 337 335 334 334 329 328 332 332 327 325 326 319 322 319 320
309 319 320 320 323 322 319 318 318 316 316 317 316 315 317 317 319 321 324 329 335 338 339 338 340 343 340 331 334 331 334 330 329 326 324 324 325 324 307 308 302 301 299 305
315 320 321 320 322 321 317 317 315 315 315 314 316 317 317 318 321 320 322 321 326 331 335 340 334 330 331 329 329 330 330 331 327 322 323 327 324 324 320 310 302 300 302 300
315 314 312 313 313 316 315 314 315 314 315 316 317 318 318 319 321 322 322 324 324 328 337 334 330 329 329 332 336 334 334 320 326 325 322 327 324 324 324 319 324 321 308 306
311 312 312 313 314 314 314 314 313 313 314 315 316 317 318 319 320 323 325 326 326 333 334 334 330 329 332 337 335 338 334 327 325 324 325 322 325 323 322 324 323 322 323 309
310 311 313 313 314 314 314 315 316 316 318 318 316 316 318 320 322 323 324 326 324 327 332 329 332 329 338 336 335 332 330 324 322 326 321 324 324 323 320 323 324 320 318 316
311 311 313 314 316 317 318 318 318 317 318 317 317 318 319 320 321 322 325 328 330 332 330 330 323 317 318 335 332 328 329 323 321 323 323 324 324 322 324 321 320 317 316 312
316 317 317 317 316 317 318 319 318 318 318 319 320 321 321 321 321 325 327 329 329 330 330 332 330 327 329 331 330 328 325 324 321 321 324 322 322 323 321 320 321 317 319 313
318 319 319 320 320 320 320 319 321 322 323 322 321 321 322 323 324 327 327 327 327 326 328 328 324 329 329 323 325 325 322 321 321 321 321 317 319 321 319 318 319 318 314 311
318 318 320 320 319 318 318 321 323 322 323 323 324 323 323 324 326 327 328 323 323 322 326 328 328 326 324 321 319 320 318 316 317 317 318 319 318 317 315 307 313 312 311 310
318 319 318 317 317 318 319 319 320 322 324 324 324 324 324 326 327 326 325 321 320 320 322 322 325 322 322 320 318 314 315 316 315 314 315 315 316 315 314 312 310 309 309 309
320 317 317 317 317 316 317 317 319 320 321 323 324 326 326 324 322 322 324 320 319 309 317 319 320 315 313 313 315 312 310 314 315 315 313 313 312 311 309 308 307 308 307 308
318 318 318 317 316 313 314 312 313 316 317 319 320 321 323 320 322 319 316 315 317 309 308 308 307 308 310 313 314 314 313 312 312 312 311 311 310 309 307 306 306 307 306 306
320 320 318 316 315 315 312 313 311 307 306 309 313 315 318 317 317 316 311 304 302 305 307 307 307 305 306 314 313 313 312 312 311 309 308 301 306 305 305 305 304 304 304 303
320 318 316 315 315 312 316 316 314 307 305 308 310 312 311 311 309 308 308 306 303 305 306 302 304 306 312 311 310 310 310 310 309 308 307 306 306 305 305 305 305 305 305 305
313 314 315 313 311 317 314 315 314 314 313 312 313 312 311 309 308 309 308 306 307 305 307 308 309 310 310 309 310 310 309 307 306 307 306 307 306 306 306 306 306 306 306 305
319 312 316 314 313 314 315 313 313 312 312 312 309 310 310 310 309 309 306 308 309 309 310 309 309 310 310 310 310 310 310 309 301 308 307 307 307 307 307 306 306 307 307 306
Wind_Speed
22 18 19 21 22 20 18 16 15 13 14 5 13 8 6 1 2 5 7 10 13 13 12 12 12 12 12 10 8 6 5 4 3 4 6 8 10 11 12 11 13 13 14 15
20 19 20 11 16 18 19 19 16 17 17 7 10 8 3 4 5 7 8 10 12 12 14 14 14 13 12 10 9 7 5 3 3 5 6 8 10 11 11 12 12 13 14 15
18 17 16 14 17 18 17 16 14 16 13 5 12 6 4 4 6 8 9 10 12 14 14 13 14 14 13 11 8 7 4 3 3 4 6 7 9 11 11 12 12 13 13 14
15 19 19 9 5 10 18 12 12 6 5 4 2 1 3 5 8 8 10 12 11 12 15 15 15 14 12 10 9 7 5 4 4 4 5 7 8 9 10 10 12 12 13 12
14 17 12 13 5 10 11 11 7 8 7 5 5 1 11 5 7 4 7 10 8 9 13 15 16 14 12 10 9 7 6 5 4 3 5 6 8 10 9 9 10 10 11 13
11 16 21 6 9 4 3 11 6 2 4 5 6 8 2 6 6 5 3 5 6 10 13 15 14 14 12 10 9 8 6 4 2 3 4 6 9 9 8 10 9 10 12 11
14 13 12 9 10 7 11 2 7 3 3 2 6 8 12 10 8 5 4 5 9 11 13 14 12 13 11 10 9 6 4 4 3 4 5 7 7 8 7 9 10 9 8 9
14 16 20 14 11 10 9 9 9 6 5 1 2 4 6 8 8 9 5 7 10 11 12 12 12 12 11 10 7 6 5 4 4 5 7 6 7 7 9 8 10 8 8 9
7 3 9 8 11 10 8 11 7 5 5 1 4 6 8 9 8 7 8 9 11 12 12 11 12 12 12 9 8 7 6 6 6 6 7 8 7 9 10 6 2 9 9 10
4 9 9 10 9 8 7 8 6 3 3 4 5 6 7 7 9 10 10 8 9 11 12 12 11 12 11 10 9 8 7 7 7 7 8 8 7 7 4 6 8 8 8 8
4 6 7 4 6 7 7 5 2 1 2 5 7 8 8 8 8 8 10 10 11 10 11 12 12 12 10 9 9 7 5 7 7 9 10 8 8 3 3 8 6 5 6 6
4 9 8 5 8 6 5 4 2 4 7 9 10 9 10 10 9 10 9 10 12 13 14 12 5 11 7 13 17 8 7 10 7 7 5 6 3 7 15 13 8 3 3 3
9 7 7 7 3 5 3 5 7 8 9 10 9 9 10 9 9 9 11 13 13 13 9 4 9 8 6 10 12 10 12 12 6 6 8 4 3 7 6 3 3 4 2 4
5 2 4 4 6 7 7 5 7 11 11 11 11 11 11 10 9 11 12 13 14 14 5 8 8 10 9 7 7 9 12 11 7 7 9 3 3 2 1 6 8 5 4 4
7 6 6 6 6 8 9 11 13 13 13 13 13 12 12 12 10 11 11 13 15 4 5 9 11 11 10 11 12 11 12 10 10 7 1 2 2 5 4 2 6 3 5 4
3 7 8 7 9 10 11 12 12 12 13 12 13 12 12 10 8 11 12 12 12 6 6 6 8 9 7 8 10 10 10 9 5 4 2 5 3 7 6 4 5 5 6 7
7 8 9 6 7 7 9 10 10 11 11 12 11 10 9 8 10 13 10 8 7 7 7 5 5 8 19 5 9 8 5 9 16 4 6 6 10 3 2 6 6 5 5 4
6 8 10 11 11 12 11 10 10 10 10 9 8 8 6 10 11 9 7 3 4 2 4 2 4 13 15 6 9 6 9 8 8 10 4 8 10 5 6 4 4 2 2 7
6 8 10 12 12 12 10 9 10 8 8 9 10 9 10 8 5 5 6 2 5 2 5 7 7 12 8 8 6 5 7 8 6 0 4 1 5 2 6 6 2 2 5 5
8 4 4 8 3 6 7 7 10 10 13 8 10 9 8 6 4 4 6 5 5 4 5 6 7 9 8 8 8 6 6 7 7 6 6 6 8 3 5 6 5 4 4 5
2 2 3 3 5 6 6 6 8 8 9 7 6 7 6 4 4 5 6 5 5 5 5 3 7 6 4 6 6 5 4 4 6 2 8 2 2 4 4 4 4 4 5 4
3 4 3 4 3 3 6 6 6 5 6 5 2 5 6 5 6 7 9 7 7 7 3 5 4 3 6 9 7 6 5 8 9 6 2 3 3 4 4 4 5 4 5 4
5 4 4 5 6 5 5 7 7 7 6 7 7 4 4 5 2 4 6 5 5 7 4 1 1 3 4 5 9 5 7 5 4 4 3 3 3 4 5 5 4 4 5 4
6 7 9 7 6 4 7 7 8 8 7 7 8 8 4 5 7 8 9 7 1 6 7 3 2 4 10 3 5 5 4 4 4 5 6 4 5 6 5 5 5 5 5 3
9 7 8 4 11 6 9 9 11 9 6 7 8 8 10 8 7 6 8 6 5 6 5 5 5 8 1 3 4 4 4 4 4 5 4 4 5 5 6 5 5 5 5 5
5 4 7 3 3 4 6 5 7 6 7 8 8 8 9 7 5 4 3 4 7 7 5 5 3 2 4 4 4 5 6 5 5 3 4 4 5 5 5 6 5 5 5 5
8 5 7 7 6 4 4 7 4 5 6 6 7 6 6 6 5 5 6 7 6 5 4 4 5 1 3 4 4 4 4 6 6 1 5 4 4 4 4 4 4 3 4 6
Wind_Direction
243 252 214 201 207 225 222 241 259 272 287 358 130 158 128 90 227 257 242 234 227 202 185 193 198 183 191 185 176 177 179 202 256 284 289 300 303 304 301 308 297 313 311 303
245 238 257 239 255 214 223 227 243 257 262 101 115 117 173 204 235 251 245 249 237 211 195 199 199 192 193 185 185 176 192 217 275 284 298 298 298 309 307 309 323 307 318 307
236 231 240 244 248 256 258 261 234 252 277 241 133 161 199 258 295 298 283 253 231 223 203 195 196 196 193 188 171 178 189 214 257 286 288 296 307 305 319 317 314 317 314 311
235 233 228 238 256 299 245 260 271 280 300 27 28 88 285 288 275 287 292 288 251 206 197 191 194 192 193 175 177 181 188 222 247 265 301 312 309 313 311 318 320 325 309 324
242 236 228 200 198 233 247 244 250 219 252 180 207 302 266 36 21 334 300 286 262 207 188 186 191 181 179 183 180 186 204 227 239 283 309 323 316 313 320 318 310 306 328 328
232 240 255 263 124 123 159 235 127 252 225 222 213 222 93 41 2 332 297 261 210 197 187 179 184 178 185 186 190 201 209 217 227 277 300 317 312 312 308 302 296 326 320 1
236 250 238 120 125 150 208 124 114 127 134 256 262 325 335 329 339 332 300 227 198 187 188 178 181 183 192 192 201 198 197 200 221 254 274 284 288 302 302 295 305 311 329 356
238 246 240 124 156 220 91 109 117 108 94 94 308 309 330 321 312 307 264 231 201 198 197 172 181 192 197 203 189 186 197 211 233 245 257 286 292 296 296 289 279 292 359 1
333 318 97 133 72 104 124 120 113 114 108 50 13 11 351 342 317 316 275 238 210 213 199 189 191 198 203 198 186 192 197 216 245 248 259 264 275 277 270 256 271 347 357 350
195 116 106 112 114 113 119 116 109 96 51 12 354 347 349 349 348 337 320 261 235 229 216 207 196 206 217 187 190 188 204 222 238 239 238 248 267 274 308 335 12 349 355 343
162 132 122 145 144 131 109 111 131 100 349 326 322 316 320 318 324 328 326 303 291 244 237 239 199 200 217 204 194 184 217 246 238 239 226 242 234 358 348 60 35 357 9 349
270 5 178 103 170 138 159 184 239 306 303 306 306 307 308 303 305 304 300 303 294 271 261 251 212 203 122 54 338 3 328 252 241 273 294 251 251 99 39 102 131 138 194 320
33 34 54 66 80 136 239 281 293 299 305 301 294 295 291 298 290 299 294 278 273 273 282 169 114 138 181 188 199 169 254 268 279 235 259 289 244 105 149 93 273 249 291 281
26 1 241 240 239 231 247 288 285 272 271 273 277 279 277 277 289 290 291 289 283 274 233 181 198 211 209 204 179 220 215 248 263 256 255 238 167 135 131 186 166 154 206 238
255 231 269 290 286 269 260 264 272 274 273 267 260 255 258 265 283 295 298 293 287 297 195 240 222 236 219 193 186 217 223 232 206 251 87 337 167 213 29 168 82 140 202 214
311 282 270 272 279 275 269 266 270 273 276 272 259 254 261 268 279 285 289 288 274 306 267 252 264 272 238 203 192 206 231 253 266 223 136 234 25 312 119 139 151 74 49 15
263 265 267 288 295 290 280 280 288 291 286 282 268 263 263 276 288 285 292 313 318 256 211 189 65 352 322 244 191 230 247 48 338 259 27 284 182 169 97 97 86 98 101 57
265 278 282 279 273 275 276 283 287 282 275 268 269 267 262 263 277 307 275 228 236 194 133 106 153 160 190 75 55 39 59 62 48 353 27 346 351 95 126 121 103 107 104 134
280 281 289 292 294 289 278 279 277 283 273 273 270 251 247 263 304 299 261 246 242 206 65 72 33 90 99 72 84 88 88 82 87 117 2 29 249 46 62 93 122 92 32 23
271 259 326 287 265 282 296 343 338 299 289 287 253 249 248 237 115 90 80 91 58 67 60 102 99 98 103 92 85 73 80 68 67 39 342 291 206 81 110 70 10 19 31 21
121 64 328 16 32 21 8 321 309 308 312 274 274 258 221 208 117 144 208 114 56 39 62 69 82 96 106 128 107 107 85 93 90 161 255 271 141 60 48 27 72 34 34 33
135 109 82 43 28 20 7 1 337 329 331 316 286 137 125 118 107 83 43 76 91 14 38 75 91 90 144 154 136 145 160 169 179 190 86 48 43 45 53 52 39 37 45 39
97 110 87 70 72 62 46 31 27 25 42 45 54 53 54 59 99 168 110 64 87 96 81 76 159 273 224 224 177 150 116 138 128 106 96 95 68 67 71 28 67 57 46 37
98 92 87 91 119 95 74 55 77 62 48 25 37 16 8 100 82 79 94 96 108 137 97 101 87 286 270 162 99 102 106 113 109 78 68 14 72 71 59 65 62 61 89 70
99 93 97 113 109 102 104 114 97 87 86 83 76 69 72 47 70 81 90 94 108 93 101 71 14 325 57 87 97 94 116 113 92 110 103 113 124 114 109 83 70 69 75 58
123 107 104 75 9 124 162 133 122 130 129 124 128 126 113 114 126 122 86 143 157 182 155 168 112 174 103 94 118 107 87 117 171 98 115 89 81 99 98 111 124 100 80 69
154 145 172 149 114 112 77 112 132 114 115 113 119 125 135 134 120 140 148 156 172 160 126 157 169 86 127 146 115 137 162 100 40 89 118 119 127 125 123 117 117 80 97 85